sat.trackr.live / text

‹ back to catalog

STARLINK-5299

NORAD 55277 · 2023-010J

PAYLOAD ACTIVE UNKNOWN

§ Identity

Operator
Country
US
Launch date
2023-01-19
Launch site
AFWTR
Launch vehicle
Mass (kg)
RCS (m²)

Purposes: comms

External: N2YO · Heavens-Above · Gunter

§ Orbital elements

Epoch: 2026-05-25T04:28:50.392704Z

Period
96.11 min
Inclination
69.9990°
Eccentricity
0.0003705
Mean motion
14.98330242 rev/d
Perigee alt
569.5 km
Apogee alt
574.6 km
Semi-major
6,950.2 km
B*
6.0205e-6
RAAN
211.6083°
Arg perigee
269.4365°
Mean anomaly
90.6369°
Rev number
18,424

§ Raw data

STARLINK-52991 55277U 23010J   26145.18669436 -.00000021  00000+0  60205-5 0  99942 55277  69.9990 211.6083 0003705 269.4365  90.6369 14.98330242184249

JSON: /api/v1/satellites/55277 · /tle

For live sub-satellite position, see the globe view (requires WebGL).

§ Visibility from observer

Set your observer location to see the next 7 days of passes ≥ 10°. The values pass through the URL so the page stays shareable.

No JS? Fill the form by hand. The geolocation button needs JavaScript.